{"data":{"norad_id":67885,"epoch":"2026-05-25T05:07:39.499104Z","epoch_age_seconds":56858,"freshness":"FRESH","line1":"1 67885U 26035G   26145.21365161  .00030992  00000+0  95789-3 0  9996","line2":"2 67885  97.2847  78.7074 0000950  95.1339 265.0012 15.33461484 15719","mean_motion":15.33461484,"eccentricity":9.5e-5,"inclination_deg":97.2847,"raan_deg":78.7074,"arg_perigee_deg":95.1339,"mean_anomaly_deg":265.0012,"bstar":0.00095789,"rev_number":1571,"period_min":93.905195208672,"perigee_km":464.84398517359,"apogee_km":466.14427508832,"semimajor_km":6843.631130131,"source":"CELESTRAK","updated_at":"2026-05-25T13:38:21.732810Z"}}